sat.trackr.live / text

‹ back to catalog

GLOBALSTAR M083

NORAD 37739 · 2011-033A

PAYLOAD ACTIVE UNKNOWN

§ Identity

Operator
Country
GLOB
Launch date
2011-07-13
Launch site
TYMSC
Launch vehicle
Mass (kg)
RCS (m²)
4.67

Purposes: comms

External: N2YO · Heavens-Above · Gunter

§ Orbital elements

Epoch: 2026-09-18T23:49:28.499808Z

Period
114.08 min
Inclination
51.9843°
Eccentricity
0.0000620
Mean motion
12.62259421 rev/d
Perigee alt
1,413.1 km
Apogee alt
1,414.1 km
Semi-major
7,791.8 km
B*
1.0738e-4
RAAN
86.8492°
Arg perigee
106.4317°
Mean anomaly
59.1513°
Rev number
70,479

§ Raw data

GLOBALSTAR M0831 37739U 11033A   26261.99269097 -.00000085  00000+0  10738-3 0  99902 37739  51.9843  86.8492 0000620 106.4317  59.1513 12.62259421704793

JSON: /api/v1/satellites/37739 · /tle

For live sub-satellite position, see the globe view (requires WebGL).

§ Visibility from observer

Set your observer location to see the next 7 days of passes ≥ 10°. The values pass through the URL so the page stays shareable.

No JS? Fill the form by hand. The geolocation button needs JavaScript.